[[{"header":{"parameterUnit":"m.s-1","parameterCategory":1,"la1":30.2991,"la2":30.254,"lo1":-89.0895,"lo2":-89.0444,"dy":0.0017,"dx":0.0017,"nx":28,"ny":28,"refTime":"2024-12-20T03:00:00:Z","depth":0,"parameterNumber":2,"parameterNumberName":"U-component_of_WINDS"},"data":[0,0,0,0,0,0,0,0,0,0,0,0,0,0,0,0,0,0,0,0,0,0,0,0,0,0,0,0,0,0,0,0,0,0,0,0,0,0,0,0,0,0,0,0,0,0,0,0,0,0,0,0,0,0,0,0,0,0,-0.9524,-0.9526,0,-0.965,-0.9652,-0.9653,-0.9663,-0.9661,-0.966,-0.9659,-0.979,-0.9795,-0.98,0,0,0,0,0,0,0,0,0,0,0,0,0,-0.9293,-0.9298,-0.9524,-0.9526,-0.9527,-0.965,-0.9652,-0.9654,-0.9663,-0.9661,-0.966,-0.9658,-0.9789,-0.9794,-0.98,0,0,0,0,0,0,0,0,0,0,0,0,0,-0.9404,-0.9299,-0.9524,-0.9547,-0.955,-0.965,-0.9652,-0.9654,-0.9663,-0.9661,-0.9659,-0.9657,-0.9787,-0.9794,-0.9801,-0.9887,0,0,-0.9823,-0.9826,0,0,0,0,0,0,0,0,-0.9398,-0.9412,-0.9542,-0.9545,-0.9549,-0.9639,-0.9619,-0.9732,-0.9664,-0.962,-0.9659,-0.9656,-0.9742,-0.9752,-0.9781,-0.9893,-0.9899,-0.9824,-0.9828,-0.9831,-0.9833,0,0,0,0,0,0,0,-0.939,-0.9407,-0.9574,-0.9544,-0.9548,-0.9551,-0.9565,-0.964,-0.9691,-0.9624,-0.9625,-0.964,-0.9743,-0.9774,-0.9784,-0.9901,-0.9823,-0.983,-0.9834,-0.9837,-1.009,-1.0092,0,0,0,0,0,0,-0.9378,-0.9401,-0.957,-0.9578,-0.9467,-0.9557,-0.9572,-0.9612,-0.9691,-0.97,-0.9641,-0.964,-0.9763,-0.9776,-0.9789,-0.9895,-0.9831,-0.9838,-0.9842,-1.0087,-1.009,-1.0093,0,0,0,0,0,0,-0.9373,-0.9393,-0.9565,-0.949,-0.9512,-0.9563,-0.9608,-0.9616,-0.9646,-0.9703,-0.9713,-0.9663,-0.9761,-0.9778,-0.9862,-0.99,-0.9841,-0.9848,-1.0085,-1.0088,-1.0092,-1.0108,0,0,0,0,0,0,-0.9366,-0.9391,-0.9424,-0.949,-0.9516,-0.9637,-0.961,-0.962,-0.9658,-0.9657,-0.9726,-0.9736,-0.9761,-0.9851,-0.9869,-0.9908,-0.9853,-1.0082,-1.0086,-1.0091,-1.0104,-1.0112,-1.0118,0,0,0,0,0,-0.9358,-0.9424,-0.9426,-0.9446,-0.9558,-0.9639,-0.9653,-0.968,-0.9661,-0.9695,-0.9732,-0.9734,-0.9892,-0.986,-0.988,-0.9922,-1.0079,-1.0085,-1.009,-1.0101,-1.011,-1.0118,0,0,0,0,0,0,-0.9363,-0.9434,-0.9436,-0.9526,-0.9576,-0.964,-0.9684,-0.9689,-0.9746,-0.9743,-0.9775,-0.979,-0.9873,-0.9906,-0.9869,-1.0009,-0.9984,-0.9993,-0.9985,-0.9994,-1.0001,-0.9992,-0.9859,0,0,0,0,0,-0.9374,-0.9433,-0.9492,-0.9565,-0.959,-0.9632,-0.9669,-0.9685,-0.9738,-0.976,-0.9803,-0.9855,-0.9917,-0.9957,-1.0017,-1.0108,-1.0124,-1.0147,-1.0153,-1.0159,-1.0167,-1.0218,-1.0229,-1.0111,-1.0111,-1.011,0,0,-0.9399,-0.9444,-0.948,-0.9567,-0.9608,-0.9669,-0.9651,-0.9716,-0.9761,-0.977,-0.9852,-0.9885,-0.9945,-1.0033,-1.0074,-1.0063,-1.0203,-1.0165,-1.0169,-1.0175,-1.0224,-1.0236,-1.0246,-1.0114,-1.0114,-1.0113,0,0,-0.9475,-0.9515,-0.9581,-0.9621,-0.9683,-0.971,-0.9725,-0.9789,-0.981,-0.9892,-0.99,-0.9955,-1.006,-1.0103,-1.0138,-1.0228,-1.0232,-1.0246,-1.0283,-1.0331,-1.0341,-1.0349,-1.0382,-1.0393,-1.0254,-1.0254,-1.0254,0,-0.9498,-0.9589,-0.9614,-0.9679,-0.9717,-0.9726,-0.9793,-0.9831,-0.9909,-0.9936,-0.9922,-1.0053,-1.0095,-1.0193,-1.0214,-1.0242,-1.0262,-1.024,-1.0337,-1.0346,-1.0354,-1.0386,-1.0398,-1.0256,-1.0256,-1.0255,-1.0255,0,-0.9615,-0.9678,-0.9723,-0.9797,-0.984,-0.9906,-0.9941,-0.9982,-0.9993,-1.0022,-1.0105,-1.0154,-1.0224,-1.0248,-1.0261,-1.0348,-1.0339,-1.033,-1.0306,-1.0366,-1.0396,-1.0409,-1.0258,-1.0257,-1.0257,-1.0257,0,0,-0.97,-0.9785,-0.9802,-0.9835,-0.9902,-0.9952,-1.0017,-1.0084,-1.0118,-1.0171,-1.0227,-1.0315,-1.0307,-1.0347,-1.0364,-1.0407,-1.0475,-1.0394,-1.0395,-1.0408,-1.0574,-1.0581,-1.0594,-1.0477,-1.0479,-1.0481,-1.0569,0,-0.9785,-0.9901,-0.9924,-1.0025,-1.0084,-1.0092,-1.0149,-1.0196,-1.0224,-1.0278,-1.0309,-1.0371,-1.0356,-1.038,-1.0422,-1.0458,-1.0509,-1.0451,-1.053,-1.0533,-1.0517,-1.061,-1.0618,-1.0699,-1.0581,-1.0583,-1.0584,0,-0.99,-0.9954,-1.006,-1.0118,-1.0144,-1.0195,-1.0257,-1.0308,-1.0362,-1.0379,-1.0423,-1.0435,-1.0503,-1.0473,-1.0568,-1.0528,-1.0562,-1.0584,-1.0587,-1.0597,-1.0564,-1.0624,-1.0725,-1.0738,-1.0603,-1.0602,-1.06,0,-0.9952,-1.0052,-1.0128,-1.0156,-1.0226,-1.0261,-1.0292,-1.0344,-1.0382,-1.0436,-1.0462,-1.0524,-1.0558,-1.0606,-1.0634,-1.061,-1.0727,-1.07,-1.0744,-1.0743,-1.077,-1.0768,-1.088,-1.0789,-1.0789,-1.0788,-1.0788,0,-1.0045,-1.011,-1.0153,-1.02,-1.0273,-1.0298,-1.037,-1.0401,-1.0446,-1.0499,-1.051,-1.056,-1.0593,-1.0648,-1.067,-1.0745,-1.076,-1.0777,-1.0782,-1.0777,-1.0775,-1.0801,-1.0796,-1.0792,-1.0791,-1.079,-1.079,0,-1.0118,-1.0148,-1.0233,-1.0291,-1.0307,-1.0358,-1.0408,-1.0454,-1.0481,-1.0548,-1.0566,-1.0608,-1.0673,-1.0705,-1.0786,-1.0801,-1.0886,-1.0887,-1.0868,-1.087,-1.0913,-1.0909,-1.1046,-1.1066,-1.0961,-1.0961,-1.0962,0,-1.0176,-1.0226,-1.0289,-1.0325,-1.0356,-1.0414,-1.0452,-1.0479,-1.0519,-1.0582,-1.0621,-1.0686,-1.0739,-1.0842,-1.0881,-1.0942,-1.0946,-1.0989,-1.0955,-1.0948,-1.0948,-1.0945,-1.095,-1.0996,-1.0997,-1.0998,-1.0999,0,-1.0276,-1.0288,-1.0343,-1.0403,-1.0448,-1.0497,-1.0545,-1.0574,-1.0608,-1.0652,-1.0718,-1.0759,-1.0841,-1.0905,-1.0969,-1.1001,-1.1006,-1.1009,-1.1022,-1.1018,-1.1005,-1.1014,-1.0886,-1.1006,-1.1005,-1.1005,-1.1004,-1.1004,-1.0344,-1.0388,-1.0439,-1.05,-1.0538,-1.0582,-1.0628,-1.066,-1.0715,-1.0783,-1.0795,-1.0864,-1.0915,-1.1001,-1.1035,-1.109,-1.1081,-1.11,-1.1106,-1.1111,-1.1113,-1.0995,-1.1102,-1.1102,-1.1101,-1.1101,-1.1101,0,-1.0445,-1.0478,-1.0533,-1.0599,-1.0646,-1.0645,-1.0697,-1.0737,-1.0798,-1.0845,-1.0897,-1.0972,-1.1033,-1.1076,-1.1138,-1.1174,-1.1178,-1.119,-1.1189,-1.1196,-1.1118,-1.11,-1.1186,-1.1186,-1.1186,-1.1186,-1.1186,-1.1186,-1.0504,-1.0579,-1.0597,-1.0691,-1.0723,-1.0791,-1.0821,-1.0862,-1.0899,-1.0982,-1.1033,-1.1059,-1.1104,-1.117,-1.1227,-1.1237,-1.1261,-1.1273,-1.1284,-1.121,-1.1201,-1.1193,-1.1177,-1.1277,-1.1277,-1.1358,-1.1358,-1.1359]},{"header":{"parameterUnit":"m.s-1","parameterCategory":1,"la1":30.2991,"la2":30.254,"lo1":-89.0895,"lo2":-89.0444,"dy":0.0017,"dx":0.0017,"nx":28,"ny":28,"refTime":"2024-12-20T03:00:00:Z","depth":0,"parameterNumber":3,"parameterNumberName":"V-component_of_WINDS"},"data":[0,0,0,0,0,0,0,0,0,0,0,0,0,0,0,0,0,0,0,0,0,0,0,0,0,0,0,0,0,0,0,0,0,0,0,0,0,0,0,0,0,0,0,0,0,0,0,0,0,0,0,0,0,0,0,0,0,0,-7.7737,-7.7738,0,-7.7899,-7.7901,-7.7903,-7.782,-7.7815,-7.7811,-7.7807,-7.7968,-7.7976,-7.7984,0,0,0,0,0,0,0,0,0,0,0,0,0,-7.7349,-7.7356,-7.7736,-7.7739,-7.7741,-7.7899,-7.7901,-7.7903,-7.782,-7.7815,-7.781,-7.7805,-7.7966,-7.7975,-7.7985,0,0,0,0,0,0,0,0,0,0,0,0,0,-7.7515,-7.7359,-7.7736,-7.7718,-7.7718,-7.7898,-7.7901,-7.7904,-7.7821,-7.7815,-7.7809,-7.7803,-7.7962,-7.7974,-7.7987,-7.8192,0,0,-7.8025,-7.803,0,0,0,0,0,0,0,0,-7.7505,-7.7529,-7.7719,-7.772,-7.772,-7.7833,-7.7823,-7.8,-7.7823,-7.7782,-7.7807,-7.7799,-7.7928,-7.7943,-7.7987,-7.8199,-7.8206,-7.8026,-7.8033,-7.8038,-7.8042,0,0,0,0,0,0,0,-7.7494,-7.7521,-7.7801,-7.7722,-7.7723,-7.77,-7.7717,-7.7856,-7.7889,-7.7785,-7.778,-7.78,-7.7927,-7.7975,-7.799,-7.8208,-7.8025,-7.8036,-7.8044,-7.8049,-7.8595,-7.8601,0,0,0,0,0,0,-7.7484,-7.7512,-7.7795,-7.7805,-7.7595,-7.7713,-7.7731,-7.7803,-7.7887,-7.7894,-7.7806,-7.7796,-7.7957,-7.7976,-7.7996,-7.8241,-7.8038,-7.805,-7.8057,-7.8588,-7.8596,-7.8604,0,0,0,0,0,0,-7.7476,-7.751,-7.7789,-7.7658,-7.7691,-7.7726,-7.7808,-7.781,-7.7858,-7.7903,-7.7907,-7.785,-7.7953,-7.7978,-7.8143,-7.8245,-7.8056,-7.8067,-7.8579,-7.859,-7.86,-7.8733,0,0,0,0,0,0,-7.7465,-7.7508,-7.7588,-7.766,-7.7699,-7.7936,-7.7814,-7.7817,-7.788,-7.7869,-7.7945,-7.7951,-7.795,-7.8125,-7.8156,-7.8259,-7.8077,-7.857,-7.8584,-7.8597,-7.872,-7.8747,-7.877,0,0,0,0,0,-7.7452,-7.7618,-7.7592,-7.7627,-7.78,-7.7942,-7.7964,-7.7961,-7.7889,-7.7968,-7.7997,-7.7949,-7.8229,-7.8143,-7.8177,-7.8285,-7.8564,-7.858,-7.8596,-7.8708,-7.8741,-7.8769,0,0,0,0,0,0,-7.7555,-7.7627,-7.7599,-7.7794,-7.7863,-7.7928,-7.8029,-7.7996,-7.8085,-7.8071,-7.8061,-7.8079,-7.825,-7.8284,-7.8187,-7.8487,-7.8385,-7.8408,-7.8459,-7.8491,-7.8515,-7.8504,-7.8087,0,0,0,0,0,-7.76,-7.7712,-7.7768,-7.7934,-7.7971,-7.7994,-7.8056,-7.8047,-7.8117,-7.8146,-7.8186,-7.8255,-7.8358,-7.8426,-7.8523,-7.8723,-7.8738,-7.8814,-7.8839,-7.886,-7.888,-7.8987,-7.9021,-7.8656,-7.8656,-7.8656,0,0,-7.7695,-7.7748,-7.7819,-7.7957,-7.8009,-7.8123,-7.8019,-7.8144,-7.8228,-7.8164,-7.8323,-7.8355,-7.843,-7.8614,-7.8697,-7.8647,-7.8984,-7.888,-7.8896,-7.8905,-7.9007,-7.9041,-7.9072,-7.8667,-7.8665,-7.8663,0,0,-7.7927,-7.7979,-7.8123,-7.8178,-7.8259,-7.8273,-7.8307,-7.8378,-7.8397,-7.8557,-7.8511,-7.8609,-7.8787,-7.8843,-7.8894,-7.9146,-7.9105,-7.9177,-7.9309,-7.9413,-7.9442,-7.9467,-7.9557,-7.9589,-7.9197,-7.9198,-7.9198,0,-7.8034,-7.8207,-7.82,-7.833,-7.8391,-7.8339,-7.8484,-7.8536,-7.8644,-7.8687,-7.863,-7.8852,-7.8899,-7.9094,-7.9156,-7.9199,-7.9237,-7.9169,-7.9439,-7.9464,-7.9488,-7.9573,-7.9606,-7.9206,-7.9205,-7.9204,-7.9203,0,-7.8334,-7.8454,-7.856,-7.8668,-7.874,-7.8877,-7.8889,-7.8963,-7.8948,-7.8967,-7.9129,-7.9184,-7.9291,-7.9336,-7.9322,-7.953,-7.9496,-7.944,-7.9337,-7.9531,-7.961,-7.9643,-7.9218,-7.9215,-7.9212,-7.921,0,0,-7.8637,-7.8739,-7.8778,-7.8825,-7.891,-7.9002,-7.9134,-7.9241,-7.9304,-7.938,-7.949,-7.9641,-7.9589,-7.9648,-7.9638,-7.973,-7.9925,-7.9662,-7.9663,-7.9709,-8.0156,-8.0198,-8.0236,-7.9898,-7.9904,-7.9909,-8.0149,0,-7.8874,-7.9109,-7.9107,-7.9323,-7.9433,-7.9384,-7.95,-7.9563,-7.9585,-7.9679,-7.9701,-7.9809,-7.9732,-7.9767,-7.9856,-7.9883,-8.0014,-7.9865,-7.9999,-8.0004,-7.9982,-8.0278,-8.0323,-8.0548,-8.018,-8.0186,-8.0189,0,-7.9183,-7.927,-7.9499,-7.9567,-7.9612,-7.9717,-7.9813,-7.9905,-7.9975,-7.9983,-8.0049,-8.0025,-8.0157,-8.0051,-8.0233,-8.0131,-8.0185,-8.0207,-8.0215,-8.0228,-8.0109,-8.0298,-8.0619,-8.0653,-8.0238,-8.0234,-8.0231,0,-7.938,-7.9555,-7.9714,-7.9756,-7.9839,-7.9913,-7.9951,-8.0015,-8.0079,-8.0162,-8.0203,-8.03,-8.0354,-8.0428,-8.043,-8.0353,-8.0614,-8.0508,-8.0623,-8.0624,-8.0681,-8.0678,-8.1016,-8.0716,-8.0715,-8.0715,-8.0714,0,-7.9646,-7.9787,-7.9803,-7.9901,-8.0057,-8.0052,-8.0206,-8.0236,-8.0293,-8.0394,-8.0357,-8.0452,-8.045,-8.0546,-8.0548,-8.0697,-8.0722,-8.0731,-8.073,-8.0735,-8.0734,-8.0771,-8.0755,-8.0724,-8.0722,-8.072,-8.0718,0,-7.9893,-7.991,-8.008,-8.0145,-8.0164,-8.0277,-8.0331,-8.0423,-8.044,-8.0569,-8.0598,-8.0625,-8.0737,-8.0746,-8.0874,-8.0876,-8.1057,-8.1038,-8.1034,-8.1031,-8.1146,-8.1135,-8.152,-8.1569,-8.1238,-8.1241,-8.1243,0,-8.0062,-8.017,-8.0247,-8.0313,-8.0355,-8.0462,-8.0527,-8.0525,-8.0593,-8.0681,-8.0762,-8.0869,-8.0956,-8.1135,-8.1165,-8.1262,-8.1246,-8.1374,-8.126,-8.1262,-8.1248,-8.1242,-8.1252,-8.1396,-8.14,-8.1403,-8.1405,0,-8.036,-8.0362,-8.0459,-8.0558,-8.0637,-8.0715,-8.0787,-8.0842,-8.0849,-8.0927,-8.1042,-8.1109,-8.124,-8.1347,-8.1442,-8.1478,-8.1443,-8.1441,-8.1473,-8.1479,-8.1472,-8.1477,-8.1094,-8.1432,-8.1429,-8.1427,-8.1426,-8.1425,-8.0573,-8.0666,-8.0735,-8.0843,-8.0897,-8.0965,-8.1055,-8.1084,-8.118,-8.1288,-8.128,-8.1406,-8.147,-8.1595,-8.1639,-8.1735,-8.1692,-8.1738,-8.175,-8.1762,-8.1774,-8.1456,-8.1753,-8.1752,-8.1751,-8.1751,-8.175,0,-8.0868,-8.091,-8.101,-8.1113,-8.1197,-8.1157,-8.1235,-8.1308,-8.142,-8.1484,-8.157,-8.17,-8.1803,-8.1841,-8.1941,-8.2011,-8.1997,-8.2038,-8.2032,-8.2041,-8.1807,-8.1769,-8.2047,-8.2047,-8.2047,-8.2047,-8.2047,-8.2047,-8.1032,-8.1188,-8.1198,-8.138,-8.1419,-8.1544,-8.1592,-8.1653,-8.1705,-8.1853,-8.1939,-8.1963,-8.2016,-8.212,-8.2212,-8.222,-8.2258,-8.2306,-8.2307,-8.2088,-8.2058,-8.2029,-8.1994,-8.2314,-8.2314,-8.2533,-8.2535,-8.2536]}]]